This demonstration page uses our WeatherBlox Daily Observations layout. Learn more.

Left ArrowRight Arrow

44.89941, -97.11507

Hourly Observations for August 9, 2016

Temp ( °F °C ) Dew Point ( °F °C ) Humidity (%) Winds ( mph kmh ) Pressure ( in mb ) Visibility ( mi km ) Precip ( " mm )
12:53 am 00:53 Clear 70 21.1 64 17.8 82 82 SSW 16 26 29.85 1011 10 16 0.00 0.00
1:53 am 01:53 Mostly Clear 70 21.1 66 18.9 87 87 SSW 14 22 29.83 1010 10 16 0.00 0.00
2:53 am 02:53 Clear 71 21.7 67 19.4 87 87 SSW 15 24 29.80 1009 10 16 0.00 0.00
3:53 am 03:53 Clear 71 21.7 67 19.4 87 87 S 13 20 29.77 1008 10 16 0.00 0.00
4:53 am 04:53 Clear 70 21.1 67 19.4 90 90 SW 7 11 29.82 1010 10 16 0.00 0.00
5:11 am 05:11 Mostly Cloudy 70 21.1 67 19.4 90 90 SW 8 13 29.80 1009 10 16 0.00 0.00
5:53 am 05:53 Cloudy 70 21.1 67 19.4 90 90 SW 9 15 29.83 1010 10 16 0.00 0.00
6:29 am 06:29 Cloudy 70 21.1 67 19.4 90 90 SSW 8 13 29.83 1010 10 16 0.00 0.00
6:53 am 06:53 Cloudy 70 21.1 67 19.4 90 90 S 8 13 29.84 1011 10 16 0.00 0.00
7:53 am 07:53 Mostly Cloudy 71 21.7 68 20 90 90 S 12 19 29.85 1011 10 16 0.00 0.00
8:53 am 08:53 Cloudy 72 22.2 68 20 87 87 SSW 15 24 29.86 1011 10 16 0.00 0.00
9:53 am 09:53 Cloudy 75 23.9 69 20.6 82 82 SSW 9 15 29.88 1012 10 16 0.00 0.00
10:33 am 10:33 Partly Cloudy 76 24.4 69 20.6 79 79 WSW 6 9 29.85 1011 10 16 0.00 0.00
10:53 am 10:53 Sunny 78 25.6 69 20.6 74 74 VRB 7 11 29.87 1012 10 16 0.00 0.00
11:53 am 11:53 Sunny 83 28.3 66 18.9 57 57 Calm 29.86 1011 10 16 0.00 0.00
12:53 pm 12:53 Sunny 86 30 67 19.4 53 53 undefined N/A 29.86 1011 10 16 0.00 0.00
1:53 pm 13:53 Sunny 89 31.7 65 18.3 45 45 SW 7 11 29.85 1011 10 16 0.00 0.00
2:53 pm 14:53 Sunny 91 32.8 52 11.1 26 26 undefined N/A 29.85 1011 10 16 0.00 0.00
3:53 pm 15:53 Sunny 92 33.3 65 18.3 41 41 SSW 7 11 29.85 1011 10 16 0.00 0.00
4:53 pm 16:53 Sunny 90 32.2 67 19.4 47 47 S 9 15 29.85 1011 10 16 0.00 0.00
5:53 pm 17:53 Sunny 89 31.7 66 18.9 47 47 S 10 17 29.85 1011 10 16 0.00 0.00
6:53 pm 18:53 Sunny 89 31.7 64 17.8 43 43 SSE 7 11 29.84 1011 10 16 0.00 0.00
7:53 pm 19:53 Sunny 87 30.6 64 17.8 46 46 SE 6 9 29.84 1011 10 16 0.00 0.00
8:53 pm 20:53 Mostly Cloudy 83 28.3 71 21.7 67 67 ESE 9 15 29.86 1011 10 16 0.00 0.00
9:53 pm 21:53 Clear 81 27.2 71 21.7 72 72 ESE 7 11 29.87 1012 10 16 0.00 0.00
10:53 pm 22:53 Clear 79 26.1 73 22.8 82 82 SSE 10 17 29.87 1011 10 16 0.00 0.00
11:53 pm 23:53 Clear 78 25.6 73 22.8 85 85 SSE 13 20 29.85 1011 10 16 0.00 0.00

Powered by AerisWeather